Aéroclub Castres-Mazamet
ACCUEIL



METAR
LFCK 290100Z AUTO 27016KT 9999 SCT014/// BKN021/// BKN030/// ///TCU 14/12 Q1007


Liens utiles


F.F.A
Météo France
OLIVIA
SIA
D.G.A.C

Bienvenue à l'aéroclub de Castres-Mazamet


** **


               


Actualités

 Pas de carburant    
Publié le 27-Jul-2022    
Pilotes pour information panne de carburant à Revel jusqu'à Samedi 30 juillet 2022. Pensez à prendre vos dispositions.


 Limitations de vol   
Publié le 23-Jun-2022    
Bonjour à tous, limitations de vols les 24 et 25 juin entre 9:00 et 15:00... Possibilité de voler avant 9h00 ou qu'après 15h00. >>> "AERODROME RESERVE AUX VOLS COMMERCIAUX PROGRAMMES ET MEDEVAC."


 Petit-déjeuner au Club   
Publié le 18-May-2022    
Bonjour à tous, Nous vous proposons de nous retrouver le dimanche 25 mai pour un nouveau moment d’échanges accompagné de viennoiseries, café, ... et de quelques vols si le temps le permet! Merci de confirmer votre présence au plus tôt.


 Assemblée Générale   
Publié le 31-Mar-2022    
A tous les adhérents: l'Assemblée Générale du Club aura lieu le jeudi 21 avril à 18h30, à l'Hotel Mercure à Castres, route de Mazamet. Venez nombreux !


Voir plus